{"data":{"norad_id":62888,"intl_designator":"2025-024K","name":"STARLINK-11438 [DTC]","alt_names":[],"object_type":"PAYLOAD","status":"ACTIVE","operator":null,"country":"US","launch_date":"2025-02-04","launch_site_code":"AFETR","launch_vehicle":null,"mission":null,"orbit_class":"UNKNOWN","rcs_meters":null,"size_class":null,"mass_kg":null,"dimensions":null,"purposes":["comms"],"wikipedia_slug":null,"has_3d_model":false,"image_url":null,"decayed_at":null,"tle_current":{"epoch":"2026-09-20T21:56:22.174656Z","epoch_age_seconds":132458,"freshness":"FRESH","line1":"1 62888U 25024K   26263.91414554  .00134687  00000+0  10351-2 0  9997","line2":"2 62888  43.0020  84.4106 0001851 285.9851  74.0813 15.70865962 94172","mean_motion":15.70865962,"eccentricity":0.0001851,"inclination_deg":43.002,"raan_deg":84.4106,"arg_perigee_deg":285.9851,"mean_anomaly_deg":74.0813,"bstar":0.0010351,"rev_number":9417,"period_min":91.669183420756,"perigee_km":355.17429167611,"apogee_km":357.66742499526,"semimajor_km":6734.5578583357,"source":"CELESTRAK","updated_at":"2026-09-22T09:00:49.703743Z"}}}